N7KEB Weather Reports


Display with metric or nautical units.
time (UTC)temp
F
wind
direction
speed
MPH
gust
MPH
rain 1hr
in
rain 24hr
in
rain mn
in
humidity
%
barometer
mb
20260505113054 48 197 2.0 6.0 0.01 0.18 0.18 97 1010.8
20260505111549 49 180 0.0 2.0 0.02 0.18 0.18 97 1011.1
20260505101549 48 230 3.0 6.0 0.04 0.16 0.16 96 1011.0
20260505100050 48 232 5.0 13.0 0.06 0.16 0.16 96 1010.9
20260505094549 48 235 4.0 10.0 0.05 0.15 0.15 96 1011.0
20260505093103 48 245 6.0 12.0 0.04 0.13 0.13 96 1011.3
20260505091550 48 242 6.0 11.0 0.05 0.12 0.12 96 1011.2
20260505090050 49 290 4.0 9.0 0.06 0.10 0.10 96 1011.3
20260505084554 49 211 3.0 7.0 0.09 0.10 0.10 96 1010.7
20260505083054 48 225 6.0 11.0 0.08 0.09 0.09 95 1010.7
20260505081551 49 213 4.0 8.0 0.07 0.07 0.07 94 1011.5
20260505080054 49 239 4.0 9.0 0.04 0.04 0.04 91 1011.8
20260505074551 50 257 1.0 5.0 0.01 0.01 0.01 87 1011.9
20260505073051 51 0 0.0 3.0 0.01 0.01 0.01 83 1011.9
20260505071543 51 175 1.0 9.0 0.00 0.00 0.00 80 1011.6
20260505070045 52 233 7.0 13.0 0.00 0.00 0.00 77 1010.9
20260505064554 52 255 5.0 10.0 0.00 0.00 0.00 75 1011.0
20260505063046 52 201 2.0 10.0 0.00 0.00 0.00 73 1011.1
20260505061543 53 163 4.0 11.0 0.00 0.00 0.00 72 1011.1
20260505060042 52 0 0.0 3.0 0.00 0.00 0.00 73 1011.1
20260505054543 52 191 5.0 12.0 0.00 0.00 0.00 72 1010.8
20260505053105 52 131 1.0 7.0 0.00 0.00 0.00 75 1011.1
20260505051546 53 192 4.0 13.0 0.00 0.00 0.00 72 1010.9
20260505041546 53 249 8.0 15.0 0.00 0.00 0.00 74 1010.6
20260505040050 53 239 8.0 16.0 0.00 0.00 0.00 77 1010.4
20260505034557 53 214 12.0 18.0 0.00 0.00 0.00 76 1010.3
20260505033051 54 213 12.0 19.0 0.00 0.00 0.00 73 1010.5
20260505031541 54 236 7.0 18.0 0.00 0.00 0.00 73 1010.4
20260505030051 54 261 12.0 20.0 0.00 0.00 0.00 73 1010.2
20260505024544 54 247 14.0 22.0 0.00 0.00 0.00 72 1010.4
20260505023048 55 271 11.0 20.0 0.00 0.00 0.00 71 1010.6
20260505021551 55 247 11.0 16.0 0.00 0.00 0.00 72 1010.3
20260505020043 55 253 11.0 17.0 0.00 0.00 0.00 71 1010.1
20260505014549 56 244 8.0 17.0 0.00 0.00 0.00 70 1010.2
20260505013047 56 198 11.0 21.0 0.00 0.00 0.00 64 1010.1
20260505011605 57 215 11.0 21.0 0.00 0.00 0.00 63 1009.9
20260505010049 57 227 17.0 24.0 0.00 0.00 0.00 63 1009.5
20260505004541 60 192 9.0 19.0 0.00 0.00 0.00 58 1010.4
20260505003038 60 216 8.0 13.0 0.00 0.00 0.00 58 1009.9
20260505001538 60 184 4.0 7.0 0.00 0.00 0.00 59 1010.3
20260505000046 59 161 5.0 13.0 0.00 0.00 0.00 60 1010.2
20260504234544 59 138 8.0 16.0 0.00 0.00 0.00 62 1010.2
20260504233057 57 106 10.0 18.0 0.00 0.00 0.00 64 1010.3
20260504231549 57 136 6.0 18.0 0.00 0.00 0.00 66 1010.4
20260504230040 57 155 14.0 26.0 0.00 0.00 0.00 65 1010.4
20260504224544 60 141 18.0 30.0 0.00 0.00 0.00 56 1010.1
20260504223047 65 126 7.0 14.0 0.00 0.00 0.00 48 1009.9
20260504221544 65 227 9.0 14.0 0.00 0.00 0.00 51 1009.7
20260504220043 66 252 12.0 19.0 0.00 0.00 0.00 52 1009.5
20260504214538 64 246 12.0 18.0 0.00 0.00 0.00 56 1009.6
20260504213049 62 250 10.0 21.0 0.00 0.00 0.00 54 1009.7
20260504211546 61 255 15.0 22.0 0.00 0.00 0.00 64 1009.6
20260504210043 61 259 8.0 17.0 0.00 0.00 0.00 70 1009.9
20260504204540 59 266 7.0 14.0 0.00 0.00 0.00 67 1010.2
20260504203047 60 284 4.0 8.0 0.00 0.00 0.00 62 1010.3
20260504201549 59 296 3.0 8.0 0.00 0.00 0.00 61 1010.6
20260504200046 58 291 2.0 7.0 0.00 0.00 0.00 68 1010.8
20260504194601 57 22 3.0 15.0 0.00 0.00 0.00 63 1011.0
20260504193056 58 205 6.0 11.0 0.00 0.00 0.00 63 1011.4
20260504191605 58 219 6.0 14.0 0.00 0.00 0.00 63 1011.2
20260504190049 57 223 7.0 13.0 0.00 0.00 0.00 65 1011.5
20260504184549 57 204 7.0 16.0 0.00 0.00 0.00 64 1011.6
20260504183045 58 142 11.0 17.0 0.00 0.00 0.00 66 1011.8
20260504181551 58 171 8.0 15.0 0.00 0.00 0.00 64 1011.9
20260504180047 59 152 11.0 16.0 0.00 0.00 0.00 60 1011.8
20260504174551 61 179 4.0 11.0 0.00 0.00 0.00 54 1011.6
20260504173049 61 183 3.0 9.0 0.00 0.00 0.00 55 1011.3
20260504171554 60 263 1.0 4.0 0.00 0.00 0.00 55 1011.2